Location: Unspecified
(0.0000°N, 0.0000°E)
Time: 04:41:38
(UTC+00:00)

SRMSAT - Pass Details

Date: 28 March 2019
Orbit: 848 x 866 km, 20.0° (Epoch: 17 June)

Event Time Altitude Azimuth Distance (km) Brightness Sun altitude
Rises 18:30:28 0° 224° (SW) 3,419 ? -6.3°
Reaches altitude 10° 18:34:29 10° 199° (SSW) 2,478 ? -7.3°
Maximum altitude 18:37:22 14° 169° (S) 2,222 ? -8.1°
Drops below altitude 10° 18:40:14 10° 140° (SE) 2,471 ? -8.8°
Enters shadow 18:42:04 - 126° (SE) 2,841 ? -9.2°
